Voltar ao catálogo

COSMOS 529

AtivoMilitarLEO
NORAD 6264·PAYLOAD·🇷🇺 Russia

Lançado Nov 1, 1972 de Plesetsk Cosmodrome

Loading…

Próximas Passagens (próximas 24 horas)

TLE

AtualizadoSource: Space-Track

Época: Sep 14, 2026, 09:08 UTC

1 06264U 72087B   26257.38118138 -.00000031  00000-0 -88365-4 0  9997
2 06264  74.0319 237.1470 0042169 359.9016 153.8161 12.57216019472207

Acompanhe COSMOS 529 em tempo real com AllMySat

Download on the App Store